M-SEL

operational
NORAD ID: 63231 Int'l Des: 2025-052 Owner: MITRE Country: US
LEOCIRCULARRETROGRADESSO

M-SELについて

説明を読み込み中...

リアルタイム位置

3D地球を読み込み中...

次回通過

高度履歴

Altitude vs Time

uPlot chart will show altitude changes over time

軌道要素

1 63231U 25052X 26063.49823610 .00015436 00000-0 63353-3 0 9991
2 63231 97.4049 318.2425 0005802 140.7850 219.3809 15.24299624 53964
Epoch: Mar 4, 2026 • Age: 19 hours

現在のステータス

高度 491.8 km
速度 7.62 km/s
衛星直下点 20.42°N, 54.39°E
打ち上げ日 Mar 15, 2025
運用期間 0.9 years
タイプ other

技術仕様

分類 Payload
質量 32.00 kg
乾燥質量 32.00 kg
総質量 32.00 kg
長さ 0.80 m
直径 0.40 m
スパン 0.40 m
形状 Box
製造者 ADIG
バスタイプ Corvus-Micro
フェーズステータス In Orbit
所有者/国 MITRE/US

大規模コンステレーション

Loading constellations...